COSMOS 2477 (745)

Last updated on June 23, 2019, 3:41 a.m. UTC

1 37868U 11064B   19173.74504042  .00000071  00000-0  00000+0 0  9998
2 37868  64.5120 159.4134 0018811 246.2331  39.7389  2.13101753 59397
UTC
Height (km)
Latitude
Longitude
Inclination
Orbital Period
UTC large
Height (km)
Speed (km/s)
/
Latitude / Longitude
Inclination (degrees)
Orbital Period (minutes)
Azimuth
Elevation
Range (km)
Doppler Factor
iOS Compass Heading
iOS Angle

Next 30 passes for location: Hong Kong

Rise time Rise Azimuth (degrees) Set time Set Azimuth (degrees) Duration Max altitude (degrees)

No matching passes for this satellites